Location: Mercogliano
(40.9167°N, 14.7333°E)
Time: 07:24:48
(UTC+00:00)

Cosmos 1844 Rocket - Pass Details

Date: 18 September 2020
Orbit: 823 x 846 km, 71.0° (Epoch: 27 October)

Event Time Altitude Azimuth Distance (km) Brightness Sun altitude
Rises 19:37:19 0° 219° (SW) 3,344 5.9 -28.4°
Reaches altitude 10° 19:39:49 10° 224° (SW) 2,416 5.2 -28.8°
Maximum altitude 19:45:09 48° 299° (WNW) 1,075 3.5 -29.6°
Drops below altitude 10° 19:50:32 10° 13° (NNE) 2,439 5.3 -30.5°
Sets 19:53:05 0° 19° (NNE) 3,380 6.0 -30.9°
